Flag for France Weather past 2 weeks in Paris, France

Now
61 °F

More clouds than sun.


Feels Like: 61 °F
Forecast: 48 / 70 °F
Wind: 13 mph from Northwest

Location: Villacoublay

Current Time: Aug 23, 2014 at 7:49:20 PM

Latest Report: Aug 23, 2014 at 7:00 PM


Visibility: N/A

Pressure: 30.04 "Hg

Humidity: 52%

Dew point: 43 °F

Location of ParisLocation

Historic Weather in Paris — Graph

°F

Paris temperature yesterday

Maximum temperature yesterday: 68 °F (at 2:00 PM)
Minimum temperature yesterday: 50 °F (at 7:00 AM)
Average temperature yesterday: 59 °F

Past Weeks' High & Low Weather Summary

 TemperatureHumidityPressure
High75 °F (Aug 10, 2:30 PM)100% (Aug 15, 3:30 AM)30.21 "Hg (Aug 15, 3:30 AM)
Low46 °F (Aug 21, 3:30 AM)40% (Aug 21, 3:30 PM)29.59 "Hg (Aug 10, 3:00 PM)
Average60 °F74%29.95 "Hg
* Reported Aug 8 6:00 PM — Aug 23 6:30 PM, Paris, Weather by CustomWeather, © 2014

Note: Actual official high and low records may vary slightly from our data, if they occured in-between our weather recording intervals... More about our weather records

Advertising

Paris weather history for previous 24 hours

 ConditionsComfort  
Time TempWeatherWind HumidityBarometerVisibility
6:30 PM
Aug 23
63 °FBroken clouds.5 mph52%30.04 "HgN/A
6:00 PM63 °FScattered clouds.7 mph52%30.04 "HgN/A
5:30 PM64 °FPassing clouds.8 mph49%30.04 "HgN/A
5:00 PM63 °FClear.12 mph52%30.04 "HgN/A
4:30 PM64 °FScattered clouds.13 mph46%30.04 "HgN/A
4:00 PM64 °FBroken clouds.13 mph52%30.04 "HgN/A
3:30 PM66 °FScattered clouds.12 mph46%30.04 "HgN/A
3:00 PM64 °FClear.10 mph49%30.04 "HgN/A
2:30 PM64 °FScattered clouds.12 mph43%30.04 "HgN/A
2:00 PM66 °FBroken clouds.12 mph49%30.01 "HgN/A
1:30 PM64 °FScattered clouds.13 mph52%30.04 "HgN/A
1:00 PM63 °FScattered clouds.9 mph56%30.04 "HgN/A
12:30 PM63 °FPartly sunny.12 mph59%30.04 "HgN/A
12:00 PM61 °FPassing clouds.13 mph59%30.04 "HgN/A
11:30 AM61 °FPartly sunny.10 mph63%30.04 "HgN/A
11:00 AM59 °FScattered clouds.12 mph68%30.01 "HgN/A
10:30 AM57 °FScattered clouds.12 mph77%30.01 "HgN/A
10:00 AM57 °FBroken clouds.12 mph82%30.01 "HgN/A
9:30 AM57 °FScattered clouds.8 mph88%30.01 "HgN/A
9:00 AM55 °FBroken clouds.6 mph94%30.01 "HgN/A
8:30 AM54 °FClear.6 mph100%30.01 "HgN/A
8:00 AM54 °FClear.5 mph100%30.01 "HgN/A
7:30 AM54 °FClear.7 mph94%29.98 "HgN/A
7:00 AM54 °FClear.6 mph94%29.98 "HgN/A
6:30 AM54 °FClear.5 mph94%29.98 "HgN/A
6:00 AM54 °FClear.6 mph100%29.98 "HgN/A
5:30 AM55 °FClear.6 mph94%29.98 "HgN/A
5:00 AM55 °FClear.5 mph94%29.98 "HgN/A
4:30 AM55 °FDrizzle. Mostly cloudy.6 mph94%29.98 "HgN/A
4:00 AM55 °FPassing clouds.6 mph94%29.98 "HgN/A
3:30 AM55 °FPartly cloudy.5 mph94%29.98 "HgN/A
2:30 AM55 °FClear.5 mph94%29.98 "HgN/A
2:00 AM55 °FPartly cloudy.5 mph94%29.98 "HgN/A
1:30 AM55 °FPartly cloudy.3 mph94%29.98 "HgN/A
1:00 AM55 °FPartly cloudy.3 mph94%30.01 "HgN/A
12:30 AM57 °FPartly cloudy.3 mph94%30.01 "HgN/A
12:00 AM57 °FMostly cloudy.5 mph88%29.98 "HgN/A
11:30 PM
Aug 22
57 °FClear.5 mph94%29.98 "HgN/A
11:00 PM57 °FLight rain. Mostly cloudy.6 mph94%29.98 "HgN/A
10:30 PM57 °FPassing clouds.6 mph88%29.98 "HgN/A
10:00 PM57 °FLight rain. Partly cloudy.6 mph88%29.98 "HgN/A
9:30 PM57 °FBroken clouds.5 mph88%29.98 "HgN/A
9:00 PM55 °FClear.3 mph94%29.98 "HgN/A
8:30 PM57 °FLight rain. Cloudy.8 mph88%29.98 "Hg4 mi
8:00 PM59 °FBroken clouds.9 mph82%29.98 "HgN/A
7:30 PM59 °FBroken clouds.13 mph77%29.98 "HgN/A
7:00 PM63 °FPartly sunny.14 mph68%29.95 "HgN/A
Weather by CustomWeather, © 2014

See weather overviewHow to use our weather pages